Погода в Вишневом

Россия / Пензенская область     52°38′31″N   43°27′05″E
темп.,
°C
ветер,
м/с
пор.,
м/с
влажн.,
%
обл.,
%
осадки,
мм/ч
давл.,
гПа
погр.,
м
15 мая, сб
сб1500:00+17юв41380100 0.0 1014246
03:00+17ююв6156361 0.0 1014317
06:00+16ююв61567100 0.0 1014319
09:00+20ююв61458100 0.0 1015547
12:00+24ююв8144822 0.0 10151024
15:00+25ю7155255 0.0 10141694
18:00+23ю496461 0.0 1014298
21:00+18ююз22797 0.0 101416
16 мая, вс
вс1600:00+17юз11855 0.0 101511
03:00+16сз22926 0.0 101513
06:00+17св2288100 0.0 101681
09:00+22вюв3372100 0.3 1016459
12:00+25ю674687 0.0 10161054
15:00+24ю5846100 0.0 10151097
18:00+23ю3564100 0.0 1015151
21:00+18ююв2267100 0.0 101512
17 мая, пн
пн1700:00+17вюв3367100 0.0 101526
03:00+16вюв3369100 0.0 101542
06:00+17юв4765100 0.0 1016121
09:00+22юв6114953 0.0 1016465
12:00+25ююв6943100 0.0 1015762
15:00+27юв61048100 0.0 10151204
18:00+23юв4106233 0.0 1014251
21:00+18вюв512635 0.0 1014170
18 мая, вт
вт1800:00+17юв5145722 0.0 1014213
03:00+16юв5145565 0.0 1013231
06:00+16юв5126581 0.0 1013197
09:00+21юв5105467 0.0 1012338
12:00+26юв710415 0.0 1011875
15:00+27юв7124843 0.0 10101352
18:00+24юв41160100 0.0 1010265
21:00+20в4470100 0.0 100949
19 мая, ср
ср1900:00+18вюв4566100 0.0 100962
03:00+16ю3567100 0.0 100985
06:00+17с1385100 0.0 1009100
09:00+18ю61474100 0.3 1009870
12:00+20ююз71074100 0.8 10091034
15:00+21ююз9116418 1.3 10101509
18:00+18юз610762 0.3 1011975
21:00+14юз399250 0.4 1012216